This is the latest recevied weather packets stored in our database for station/object KK4WXG. If no packets are shown the sender has not sent any weather packets the latest 10 day(s).
| Time | Temp. | Humidity | Pressure | Rain* | Wind** | Luminosity | Snow |
|---|---|---|---|---|---|---|---|
| 1777532661 | 11.67° C | 99% | 1006.8 hPa | 0 mm | - | 0 W/m² | - |
| 1777532358 | 11.67° C | 99% | 1006.7 hPa | 0 mm | - | 0 W/m² | - |
| 1777532054 | 11.67° C | 99% | 1006.7 hPa | 0 mm | - | 0 W/m² | - |
| 1777531750 | 11.67° C | 99% | 1006.7 hPa | 0 mm | - | 0 W/m² | - |
| 1777531446 | 11.67° C | 99% | 1006.6 hPa | 0 mm | - | 0 W/m² | - |
| 1777531144 | 11.67° C | 99% | 1006.7 hPa | 0 mm | - | 0 W/m² | - |
| 1777530842 | 11.67° C | 99% | 1006.7 hPa | 0 mm | - | 0 W/m² | - |
| 1777530539 | 11.11° C | 99% | 1006.9 hPa | 0 mm | - | 0 W/m² | - |
| 1777530235 | 11.11° C | 99% | 1007 hPa | 0 mm | - | 0 W/m² | - |
| 1777529932 | 11.11° C | 99% | 1006.9 hPa | 0 mm | - | 0 W/m² | - |
| 1777529628 | 11.11° C | 99% | 1006.8 hPa | 0 mm | - | 0 W/m² | - |
| 1777529326 | 11.11° C | 98% | 1006.7 hPa | 0 mm | - | 0 W/m² | - |
| 1777529022 | 11.67° C | 98% | 1006.7 hPa | 0 mm | - | 0 W/m² | - |
| 1777528717 | 12.22° C | 99% | 1006.6 hPa | 0 mm | - | 0 W/m² | - |
| 1777528415 | 12.22° C | 99% | 1006.8 hPa | 0 mm | - | 0 W/m² | - |
| 1777528113 | 11.67° C | 99% | 1006.8 hPa | 0 mm | - | 0 W/m² | - |
| 1777527505 | 11.67° C | 98% | 1006.7 hPa | 0 mm | - | 0 W/m² | - |
| 1777527201 | 12.22° C | 98% | 1006.8 hPa | 0.51 mm | - | 0 W/m² | - |
| 1777526897 | 12.22° C | 99% | 1006.6 hPa | 0.51 mm | - | 0 W/m² | - |
| 1777526593 | 12.22° C | 99% | 1006.8 hPa | 0 mm | - | 0 W/m² | - |
| 1777526292 | 12.22° C | 99% | 1006.9 hPa | 0 mm | - | 0 W/m² | - |
| 1777525989 | 12.22° C | 98% | 1007 hPa | 0 mm | - | 0 W/m² | - |
| 1777525686 | 12.22° C | 98% | 1006.8 hPa | 0 mm | - | 0 W/m² | - |
| 1777525384 | 12.22° C | 98% | 1006.9 hPa | 0 mm | - | 0 W/m² | - |
| 1777525079 | 12.78° C | 98% | 1006.8 hPa | 0 mm | - | 0 W/m² | - |
* Rain latest hour (hover to see other rain measurements)
** Current wind speed in m/s (hover to see current wind gust speed)